Year,Month,Day,Hour,Minute,Value (Times are PST for temperature in C)
2014,05,28,00,00,11.70
2014,05,28,00,01,11.80
2014,05,28,00,02,11.80
2014,05,28,00,03,11.80
2014,05,28,00,04,11.80
2014,05,28,00,05,11.80
2014,05,28,00,06,11.80
2014,05,28,00,07,11.80
2014,05,28,00,08,11.80
2014,05,28,00,09,11.70
2014,05,28,00,10,11.70
2014,05,28,00,11,11.70
2014,05,28,00,12,11.70
2014,05,28,00,13,11.70
2014,05,28,00,14,11.70
2014,05,28,00,15,11.70
2014,05,28,00,16,11.70
2014,05,28,00,17,11.70
2014,05,28,00,18,11.70
2014,05,28,00,19,11.70
2014,05,28,00,20,11.60
2014,05,28,00,21,11.60
2014,05,28,00,22,11.60
2014,05,28,00,23,11.60
2014,05,28,00,24,11.60
2014,05,28,00,25,11.60
2014,05,28,00,26,11.60
2014,05,28,00,27,11.50
2014,05,28,00,28,11.50
2014,05,28,00,29,11.50
2014,05,28,00,30,11.50
2014,05,28,00,31,11.40
2014,05,28,00,32,11.40
2014,05,28,00,33,11.40
2014,05,28,00,34,11.40
2014,05,28,00,35,11.40
2014,05,28,00,36,11.40
2014,05,28,00,37,11.40
2014,05,28,00,38,11.40
2014,05,28,00,39,11.40
2014,05,28,00,40,11.40
2014,05,28,00,41,11.40
2014,05,28,00,42,11.30
2014,05,28,00,43,11.30
2014,05,28,00,44,11.30
2014,05,28,00,45,11.30
2014,05,28,00,46,11.30
2014,05,28,00,47,11.30
2014,05,28,00,48,11.30
2014,05,28,00,49,11.30
2014,05,28,00,50,11.30
2014,05,28,00,51,11.30
2014,05,28,00,52,11.30
2014,05,28,00,53,11.30
2014,05,28,00,54,11.30
2014,05,28,00,55,11.40
2014,05,28,00,56,11.30
2014,05,28,00,57,11.30
2014,05,28,00,58,11.30
2014,05,28,00,59,11.30
2014,05,28,01,00,11.30
2014,05,28,01,01,11.30
2014,05,28,01,02,11.30
2014,05,28,01,03,11.30
2014,05,28,01,04,11.30
2014,05,28,01,05,11.30
2014,05,28,01,06,11.30
2014,05,28,01,07,11.30
2014,05,28,01,08,11.30
2014,05,28,01,09,11.30
2014,05,28,01,10,11.30
2014,05,28,01,11,11.30
2014,05,28,01,12,11.30
2014,05,28,01,13,11.30
2014,05,28,01,14,11.30
2014,05,28,01,15,11.30
2014,05,28,01,16,11.30
2014,05,28,01,17,11.30
2014,05,28,01,18,11.30
2014,05,28,01,19,11.30
2014,05,28,01,20,11.30
2014,05,28,01,21,11.40
2014,05,28,01,22,11.30
2014,05,28,01,23,11.30
2014,05,28,01,24,11.30
2014,05,28,01,25,11.30
2014,05,28,01,26,11.30
2014,05,28,01,27,11.30
2014,05,28,01,28,11.30
2014,05,28,01,29,11.20
2014,05,28,01,30,11.20
2014,05,28,01,31,11.20
2014,05,28,01,32,11.20
2014,05,28,01,33,11.20
2014,05,28,01,34,11.20
2014,05,28,01,35,11.20
2014,05,28,01,36,11.20
2014,05,28,01,37,11.20
2014,05,28,01,38,11.20
2014,05,28,01,39,11.20
2014,05,28,01,40,11.20
2014,05,28,01,41,11.20
2014,05,28,01,42,11.20
2014,05,28,01,43,11.20
2014,05,28,01,44,11.20
2014,05,28,01,45,11.20
2014,05,28,01,46,11.20
2014,05,28,01,47,11.20
2014,05,28,01,48,11.20
2014,05,28,01,49,11.20
2014,05,28,01,50,11.20
2014,05,28,01,51,11.20
2014,05,28,01,52,11.20
2014,05,28,01,53,11.20
2014,05,28,01,54,11.20
2014,05,28,01,55,11.20
2014,05,28,01,56,11.20
2014,05,28,01,57,11.20
2014,05,28,01,58,11.20
2014,05,28,01,59,11.20
2014,05,28,02,00,11.20
2014,05,28,02,01,11.20
2014,05,28,02,02,11.30
2014,05,28,02,03,11.30
2014,05,28,02,04,11.30
2014,05,28,02,05,11.30
2014,05,28,02,06,11.30
2014,05,28,02,07,11.30
2014,05,28,02,08,11.30
2014,05,28,02,09,11.30
2014,05,28,02,10,11.30
2014,05,28,02,11,11.30
2014,05,28,02,12,11.30
2014,05,28,02,13,11.30
2014,05,28,02,14,11.30
2014,05,28,02,15,11.30
2014,05,28,02,16,11.30
2014,05,28,02,17,11.30
2014,05,28,02,18,11.30
2014,05,28,02,19,11.30
2014,05,28,02,20,11.30
2014,05,28,02,21,11.30
2014,05,28,02,22,11.30
2014,05,28,02,23,11.30
2014,05,28,02,24,11.30
2014,05,28,02,25,11.30
2014,05,28,02,26,11.30
2014,05,28,02,27,11.30
2014,05,28,02,28,11.30
2014,05,28,02,29,11.30
2014,05,28,02,30,11.30
2014,05,28,02,31,11.20
2014,05,28,02,32,11.20
2014,05,28,02,33,11.20
2014,05,28,02,34,11.20
2014,05,28,02,35,11.20
2014,05,28,02,36,11.20
2014,05,28,02,37,11.20
2014,05,28,02,38,11.20
2014,05,28,02,39,11.20
2014,05,28,02,40,11.20
2014,05,28,02,41,11.20
2014,05,28,02,42,11.20
2014,05,28,02,43,11.30
2014,05,28,02,44,11.30
2014,05,28,02,45,11.30
2014,05,28,02,46,11.20
2014,05,28,02,47,11.20
2014,05,28,02,48,11.20
2014,05,28,02,49,11.20
2014,05,28,02,50,11.20
2014,05,28,02,51,11.20
2014,05,28,02,52,11.20
2014,05,28,02,53,11.20
2014,05,28,02,54,11.20
2014,05,28,02,55,11.20
2014,05,28,02,56,11.20
2014,05,28,02,57,11.20
2014,05,28,02,58,11.20
2014,05,28,02,59,11.30
2014,05,28,03,00,11.30
2014,05,28,03,01,11.30
2014,05,28,03,02,11.30
2014,05,28,03,03,11.30
2014,05,28,03,04,11.30
2014,05,28,03,05,11.30
2014,05,28,03,06,11.30
2014,05,28,03,07,11.30
2014,05,28,03,08,11.30
2014,05,28,03,09,11.30
2014,05,28,03,10,11.30
2014,05,28,03,11,11.30
2014,05,28,03,12,11.30
2014,05,28,03,13,11.30
2014,05,28,03,14,11.30
2014,05,28,03,15,11.30
2014,05,28,03,16,11.30
2014,05,28,03,17,11.30
2014,05,28,03,18,11.30
2014,05,28,03,19,11.30
2014,05,28,03,20,11.30
2014,05,28,03,21,11.40
2014,05,28,03,22,11.40
2014,05,28,03,23,11.30
2014,05,28,03,24,11.30
2014,05,28,03,25,11.30
2014,05,28,03,26,11.30
2014,05,28,03,27,11.30
2014,05,28,03,28,11.30
2014,05,28,03,29,11.30
2014,05,28,03,30,11.30
2014,05,28,03,31,11.30
2014,05,28,03,32,11.30
2014,05,28,03,33,11.30
2014,05,28,03,34,11.30
2014,05,28,03,35,11.30
2014,05,28,03,36,11.30
2014,05,28,03,37,11.30
2014,05,28,03,38,11.20
2014,05,28,03,39,11.20
2014,05,28,03,40,11.20
2014,05,28,03,41,11.20
2014,05,28,03,42,11.20
2014,05,28,03,43,11.20
2014,05,28,03,44,11.20
2014,05,28,03,45,11.10
2014,05,28,03,46,11.10
2014,05,28,03,47,11.10
2014,05,28,03,48,11.10
2014,05,28,03,49,11.10
2014,05,28,03,50,11.00
2014,05,28,03,51,11.00
2014,05,28,03,52,11.00
2014,05,28,03,53,11.00
2014,05,28,03,54,11.00
2014,05,28,03,55,11.00
2014,05,28,03,56,11.00
2014,05,28,03,57,10.90
2014,05,28,03,58,10.90
2014,05,28,03,59,10.90
2014,05,28,04,00,10.80
2014,05,28,04,01,10.70
2014,05,28,04,02,10.70
2014,05,28,04,03,10.60
2014,05,28,04,04,10.50
2014,05,28,04,05,10.40
2014,05,28,04,06,10.30
2014,05,28,04,07,10.10
2014,05,28,04,08,10.00
2014,05,28,04,09,9.90
2014,05,28,04,10,9.80
2014,05,28,04,11,9.60
2014,05,28,04,12,9.50
2014,05,28,04,13,9.40
2014,05,28,04,14,9.30
2014,05,28,04,15,9.30
2014,05,28,04,16,9.20
2014,05,28,04,17,9.10
2014,05,28,04,18,9.00
2014,05,28,04,19,9.00
2014,05,28,04,20,9.00
2014,05,28,04,21,9.00
2014,05,28,04,22,9.00
2014,05,28,04,23,9.00
2014,05,28,04,24,9.00
2014,05,28,04,25,9.00
2014,05,28,04,26,9.00
2014,05,28,04,27,9.00
2014,05,28,04,28,9.10
2014,05,28,04,29,9.10
2014,05,28,04,30,9.00
2014,05,28,04,31,9.00
2014,05,28,04,32,9.00
2014,05,28,04,33,9.00
2014,05,28,04,34,9.00
2014,05,28,04,35,8.90
2014,05,28,04,36,8.90
2014,05,28,04,37,8.90
2014,05,28,04,38,9.00
2014,05,28,04,39,9.00
2014,05,28,04,40,9.00
2014,05,28,04,41,9.00
2014,05,28,04,42,9.10
2014,05,28,04,43,9.10
2014,05,28,04,44,9.10
2014,05,28,04,45,9.10
2014,05,28,04,46,9.20
2014,05,28,04,47,9.20
2014,05,28,04,48,9.20
2014,05,28,04,49,9.30
2014,05,28,04,50,9.30
2014,05,28,04,51,9.40
2014,05,28,04,52,9.40
2014,05,28,04,53,9.50
2014,05,28,04,54,9.50
2014,05,28,04,55,9.50
2014,05,28,04,56,9.50
2014,05,28,04,57,9.50
2014,05,28,04,58,9.50
2014,05,28,04,59,9.50
2014,05,28,05,00,9.50
2014,05,28,05,01,9.50
2014,05,28,05,02,9.40
2014,05,28,05,03,9.40
2014,05,28,05,04,9.30
2014,05,28,05,05,9.20
2014,05,28,05,06,9.00
2014,05,28,05,07,8.90
2014,05,28,05,08,8.70
2014,05,28,05,09,8.60
2014,05,28,05,10,8.50
2014,05,28,05,11,8.40
2014,05,28,05,12,8.30
2014,05,28,05,13,8.20
2014,05,28,05,14,8.10
2014,05,28,05,15,8.10
2014,05,28,05,16,8.10
2014,05,28,05,17,8.10
2014,05,28,05,18,8.10
2014,05,28,05,19,8.10
2014,05,28,05,20,8.10
2014,05,28,05,21,8.10
2014,05,28,05,22,8.10
2014,05,28,05,23,8.10
2014,05,28,05,24,8.10
2014,05,28,05,25,8.10
2014,05,28,05,26,8.10
2014,05,28,05,27,8.20
2014,05,28,05,28,8.20
2014,05,28,05,29,8.20
2014,05,28,05,30,8.30
2014,05,28,05,31,8.30
2014,05,28,05,32,8.30
2014,05,28,05,33,8.40
2014,05,28,05,34,8.40
2014,05,28,05,35,8.50
2014,05,28,05,36,8.50
2014,05,28,05,37,8.60
2014,05,28,05,38,8.60
2014,05,28,05,39,8.60
2014,05,28,05,40,8.70
2014,05,28,05,41,8.70
2014,05,28,05,42,8.70
2014,05,28,05,43,8.70
2014,05,28,05,44,8.70
2014,05,28,05,45,8.70
2014,05,28,05,46,8.70
2014,05,28,05,47,8.70
2014,05,28,05,48,8.70
2014,05,28,05,49,8.70
2014,05,28,05,50,8.80
2014,05,28,05,51,8.80
2014,05,28,05,52,8.80
2014,05,28,05,53,8.80
2014,05,28,05,54,8.80
2014,05,28,05,55,8.80
2014,05,28,05,56,8.80
2014,05,28,05,57,8.80
2014,05,28,05,58,8.80
2014,05,28,05,59,8.70
2014,05,28,06,00,8.70
2014,05,28,06,01,8.70
2014,05,28,06,02,8.70
2014,05,28,06,03,8.70
2014,05,28,06,04,8.70
2014,05,28,06,05,8.60
2014,05,28,06,06,8.60
2014,05,28,06,07,8.50
2014,05,28,06,08,8.40
2014,05,28,06,09,8.40
2014,05,28,06,10,8.30
2014,05,28,06,11,8.30
2014,05,28,06,12,8.30
2014,05,28,06,13,8.30
2014,05,28,06,14,8.20
2014,05,28,06,15,8.20
2014,05,28,06,16,8.20
2014,05,28,06,17,8.20
2014,05,28,06,18,8.20
2014,05,28,06,19,8.20
2014,05,28,06,20,8.20
2014,05,28,06,21,8.30
2014,05,28,06,22,8.30
2014,05,28,06,23,8.30
2014,05,28,06,24,8.30
2014,05,28,06,25,8.40
2014,05,28,06,26,8.40
2014,05,28,06,27,8.40
2014,05,28,06,28,8.40
2014,05,28,06,29,8.50
2014,05,28,06,30,8.50
2014,05,28,06,31,8.60
2014,05,28,06,32,8.70
2014,05,28,06,33,8.70
2014,05,28,06,34,8.80
2014,05,28,06,35,8.90
2014,05,28,06,36,8.90
2014,05,28,06,37,9.00
2014,05,28,06,38,9.00
2014,05,28,06,39,9.10
2014,05,28,06,40,9.10
2014,05,28,06,41,9.20
2014,05,28,06,42,9.20
2014,05,28,06,43,9.20
2014,05,28,06,44,9.20
2014,05,28,06,45,9.20
2014,05,28,06,46,9.20
2014,05,28,06,47,9.30
2014,05,28,06,48,9.30
2014,05,28,06,49,9.30
2014,05,28,06,50,9.40
2014,05,28,06,51,9.40
2014,05,28,06,52,9.40
2014,05,28,06,53,9.40
2014,05,28,06,54,9.50
2014,05,28,06,55,9.50
2014,05,28,06,56,9.50
2014,05,28,06,57,9.50
2014,05,28,06,58,9.60
2014,05,28,06,59,9.60
2014,05,28,07,00,9.60
2014,05,28,07,01,9.60
2014,05,28,07,02,9.60
2014,05,28,07,03,9.70
2014,05,28,07,04,9.70
2014,05,28,07,05,9.80
2014,05,28,07,06,9.90
2014,05,28,07,07,10.00
2014,05,28,07,08,10.00
2014,05,28,07,09,10.10
2014,05,28,07,10,10.30
2014,05,28,07,11,10.40
2014,05,28,07,12,10.50
2014,05,28,07,13,10.60
2014,05,28,07,14,10.70
2014,05,28,07,15,10.90
2014,05,28,07,16,11.00
2014,05,28,07,17,11.10
2014,05,28,07,18,11.20
2014,05,28,07,19,11.30
2014,05,28,07,20,11.40
2014,05,28,07,21,11.40
2014,05,28,07,22,11.50
2014,05,28,07,23,11.60
2014,05,28,07,24,11.70
2014,05,28,07,25,11.70
2014,05,28,07,26,11.80
2014,05,28,07,27,11.80
2014,05,28,07,28,11.80
2014,05,28,07,29,11.90
2014,05,28,07,30,12.00
2014,05,28,07,31,12.00
2014,05,28,07,32,12.10
2014,05,28,07,33,12.10
2014,05,28,07,34,12.20
2014,05,28,07,35,12.30
2014,05,28,07,36,12.30
2014,05,28,07,37,12.40
2014,05,28,07,38,12.40
2014,05,28,07,39,12.50
2014,05,28,07,40,12.50
2014,05,28,07,41,12.50
2014,05,28,07,42,12.60
2014,05,28,07,43,12.60
2014,05,28,07,44,12.60
2014,05,28,07,45,12.70
2014,05,28,07,46,12.70
2014,05,28,07,47,12.70
2014,05,28,07,48,12.70
2014,05,28,07,49,12.70
2014,05,28,07,50,12.80
2014,05,28,07,51,12.80
2014,05,28,07,52,12.80
2014,05,28,07,53,12.90
2014,05,28,07,54,12.90
2014,05,28,07,55,12.90
2014,05,28,07,56,13.00
2014,05,28,07,57,13.00
2014,05,28,07,58,13.10
2014,05,28,07,59,13.10
2014,05,28,08,00,13.20
2014,05,28,08,01,13.20
2014,05,28,08,02,13.20
2014,05,28,08,03,13.30
2014,05,28,08,04,13.30
2014,05,28,08,05,13.30
2014,05,28,08,06,13.30
2014,05,28,08,07,13.40
2014,05,28,08,08,13.40
2014,05,28,08,09,13.40
2014,05,28,08,10,13.50
2014,05,28,08,11,13.50
2014,05,28,08,12,13.50
2014,05,28,08,13,13.60
2014,05,28,08,14,13.60
2014,05,28,08,15,13.60
2014,05,28,08,16,13.70
2014,05,28,08,17,13.70
2014,05,28,08,18,13.80
2014,05,28,08,19,13.90
2014,05,28,08,20,13.90
2014,05,28,08,21,14.00
2014,05,28,08,22,14.00
2014,05,28,08,23,14.00
2014,05,28,08,24,13.90
2014,05,28,08,25,13.90
2014,05,28,08,26,13.90
2014,05,28,08,27,13.90
2014,05,28,08,28,13.90
2014,05,28,08,29,13.90
2014,05,28,08,30,13.90
2014,05,28,08,31,13.90
2014,05,28,08,32,13.90
2014,05,28,08,33,13.90
2014,05,28,08,34,13.90
2014,05,28,08,35,14.00
2014,05,28,08,36,14.00
2014,05,28,08,37,14.00
2014,05,28,08,38,14.10
2014,05,28,08,39,14.10
2014,05,28,08,40,14.00
2014,05,28,08,41,14.00
2014,05,28,08,42,14.00
2014,05,28,08,43,14.00
2014,05,28,08,44,13.90
2014,05,28,08,45,13.90
2014,05,28,08,46,13.90
2014,05,28,08,47,13.90
2014,05,28,08,48,13.90
2014,05,28,08,49,14.00
2014,05,28,08,50,14.00
2014,05,28,08,51,14.00
2014,05,28,08,52,14.10
2014,05,28,08,53,14.10
2014,05,28,08,54,14.10
2014,05,28,08,55,14.20
2014,05,28,08,56,14.20
2014,05,28,08,57,14.20
2014,05,28,08,58,14.30
2014,05,28,08,59,14.30
2014,05,28,09,00,14.40
2014,05,28,09,01,14.40
2014,05,28,09,02,14.40
2014,05,28,09,03,14.40
2014,05,28,09,04,14.40
2014,05,28,09,05,14.50
2014,05,28,09,06,14.50
2014,05,28,09,07,14.60
2014,05,28,09,08,14.60
2014,05,28,09,09,14.70
2014,05,28,09,10,14.80
2014,05,28,09,11,14.80
2014,05,28,09,12,14.90
2014,05,28,09,13,14.90
2014,05,28,09,14,14.90
2014,05,28,09,15,14.80
2014,05,28,09,16,14.90
2014,05,28,09,17,14.90
2014,05,28,09,18,14.90
2014,05,28,09,19,15.00
2014,05,28,09,20,15.10
2014,05,28,09,21,15.00
2014,05,28,09,22,15.00
2014,05,28,09,23,14.90
2014,05,28,09,24,14.80
2014,05,28,09,25,14.80
2014,05,28,09,26,14.80
2014,05,28,09,27,14.80
2014,05,28,09,28,14.80
2014,05,28,09,29,14.80
2014,05,28,09,30,14.80
2014,05,28,09,31,14.90
2014,05,28,09,32,14.90
2014,05,28,09,33,14.90
2014,05,28,09,34,15.00
2014,05,28,09,35,15.00
2014,05,28,09,36,14.90
2014,05,28,09,37,14.90
2014,05,28,09,38,14.90
2014,05,28,09,39,14.90
2014,05,28,09,40,14.90
2014,05,28,09,41,14.90
2014,05,28,09,42,14.90
2014,05,28,09,43,15.00
2014,05,28,09,44,15.00
2014,05,28,09,45,15.10
2014,05,28,09,46,15.10
2014,05,28,09,47,15.20
2014,05,28,09,48,15.20
2014,05,28,09,49,15.20
2014,05,28,09,50,15.30
2014,05,28,09,51,15.30
2014,05,28,09,52,15.40
2014,05,28,09,53,15.40
2014,05,28,09,54,15.40
2014,05,28,09,55,15.40
2014,05,28,09,56,15.40
2014,05,28,09,57,15.40
2014,05,28,09,58,15.50
2014,05,28,09,59,15.50
2014,05,28,10,00,15.50
2014,05,28,10,01,15.50
2014,05,28,10,02,15.50
2014,05,28,10,03,15.50
2014,05,28,10,04,15.50
2014,05,28,10,05,15.50
2014,05,28,10,06,15.40
2014,05,28,10,07,15.40
2014,05,28,10,08,15.50
2014,05,28,10,09,15.50
2014,05,28,10,10,15.60
2014,05,28,10,11,15.60
2014,05,28,10,12,15.60
2014,05,28,10,13,15.60
2014,05,28,10,14,15.60
2014,05,28,10,15,15.60
2014,05,28,10,16,15.60
2014,05,28,10,17,15.70
2014,05,28,10,18,15.70
2014,05,28,10,19,15.80
2014,05,28,10,20,15.80
2014,05,28,10,21,15.80
2014,05,28,10,22,15.90
2014,05,28,10,23,15.90
2014,05,28,10,24,15.90
2014,05,28,10,25,15.90
2014,05,28,10,26,16.00
2014,05,28,10,27,16.00
2014,05,28,10,28,16.10
2014,05,28,10,29,16.10
2014,05,28,10,30,16.10
2014,05,28,10,31,16.10
2014,05,28,10,32,16.10
2014,05,28,10,33,16.00
2014,05,28,10,34,15.90
2014,05,28,10,35,15.90
2014,05,28,10,36,15.90
2014,05,28,10,37,15.90
2014,05,28,10,38,15.90
2014,05,28,10,39,15.80
2014,05,28,10,40,15.90
2014,05,28,10,41,15.90
2014,05,28,10,42,16.00
2014,05,28,10,43,16.00
2014,05,28,10,44,16.10
2014,05,28,10,45,16.00
2014,05,28,10,46,15.90
2014,05,28,10,47,15.90
2014,05,28,10,48,15.90
2014,05,28,10,49,15.90
2014,05,28,10,50,15.90
2014,05,28,10,51,15.90
2014,05,28,10,52,15.90
2014,05,28,10,53,16.00
2014,05,28,10,54,16.00
2014,05,28,10,55,16.00
2014,05,28,10,56,16.00
2014,05,28,10,57,16.00
2014,05,28,10,58,16.00
2014,05,28,10,59,16.00
2014,05,28,11,00,16.10
2014,05,28,11,01,16.20
2014,05,28,11,02,16.20
2014,05,28,11,03,16.20
2014,05,28,11,04,16.20
2014,05,28,11,05,16.20
2014,05,28,11,06,16.30
2014,05,28,11,07,16.30
2014,05,28,11,08,16.30
2014,05,28,11,09,16.20
2014,05,28,11,10,16.20
2014,05,28,11,11,16.20
2014,05,28,11,12,16.20
2014,05,28,11,13,16.20
2014,05,28,11,14,16.20
2014,05,28,11,15,16.20
2014,05,28,11,16,16.20
2014,05,28,11,17,16.20
2014,05,28,11,18,16.20
2014,05,28,11,19,16.20
2014,05,28,11,20,16.20
2014,05,28,11,21,16.20
2014,05,28,11,22,16.30
2014,05,28,11,23,16.30
2014,05,28,11,24,16.40
2014,05,28,11,25,16.50
2014,05,28,11,26,16.50
2014,05,28,11,27,16.60
2014,05,28,11,28,16.60
2014,05,28,11,29,16.60
2014,05,28,11,30,16.60
2014,05,28,11,31,16.60
2014,05,28,11,32,16.70
2014,05,28,11,33,16.70
2014,05,28,11,34,16.80
2014,05,28,11,35,16.80
2014,05,28,11,36,16.80
2014,05,28,11,37,16.80
2014,05,28,11,38,16.80
2014,05,28,11,39,16.70
2014,05,28,11,40,16.60
2014,05,28,11,41,16.60
2014,05,28,11,42,16.60
2014,05,28,11,43,16.60
2014,05,28,11,44,16.60
2014,05,28,11,45,16.70
2014,05,28,11,46,16.70
2014,05,28,11,47,16.60
2014,05,28,11,48,16.60
2014,05,28,11,49,16.50
2014,05,28,11,50,16.50
2014,05,28,11,51,16.50
2014,05,28,11,52,16.50
2014,05,28,11,53,16.40
2014,05,28,11,54,16.50
2014,05,28,11,55,16.60
2014,05,28,11,56,16.70
2014,05,28,11,57,16.80
2014,05,28,11,58,16.90
2014,05,28,11,59,17.00
2014,05,28,12,00,17.10
2014,05,28,12,01,17.20
2014,05,28,12,02,17.30
2014,05,28,12,03,17.40
2014,05,28,12,04,17.40
2014,05,28,12,05,17.50
2014,05,28,12,06,17.30
2014,05,28,12,07,17.20
2014,05,28,12,08,17.20
2014,05,28,12,09,17.20
2014,05,28,12,10,17.20
2014,05,28,12,11,17.10
2014,05,28,12,12,17.10
2014,05,28,12,13,17.10
2014,05,28,12,14,17.20
2014,05,28,12,15,17.20
2014,05,28,12,16,17.30
2014,05,28,12,17,17.40
2014,05,28,12,18,17.40
2014,05,28,12,19,17.50
2014,05,28,12,20,17.60
2014,05,28,12,21,17.50
2014,05,28,12,22,17.40
2014,05,28,12,23,17.30
2014,05,28,12,24,17.40
2014,05,28,12,25,17.40
2014,05,28,12,26,17.30
2014,05,28,12,27,17.30
2014,05,28,12,28,17.30
2014,05,28,12,29,17.30
2014,05,28,12,30,17.30
2014,05,28,12,31,17.30
2014,05,28,12,32,17.20
2014,05,28,12,33,17.10
2014,05,28,12,34,17.10
2014,05,28,12,35,17.10
2014,05,28,12,36,17.00
2014,05,28,12,37,17.00
2014,05,28,12,38,17.00
2014,05,28,12,39,17.00
2014,05,28,12,40,17.10
2014,05,28,12,41,17.00
2014,05,28,12,42,17.10
2014,05,28,12,43,17.10
2014,05,28,12,44,17.10
2014,05,28,12,45,17.10
2014,05,28,12,46,17.10
2014,05,28,12,47,17.10
2014,05,28,12,48,17.10
2014,05,28,12,49,17.20
2014,05,28,12,50,17.20
2014,05,28,12,51,17.30
2014,05,28,12,52,17.40
2014,05,28,12,53,17.40
2014,05,28,12,54,17.30
2014,05,28,12,55,17.30
2014,05,28,12,56,17.20
2014,05,28,12,57,17.20
2014,05,28,12,58,17.20
2014,05,28,12,59,17.10
2014,05,28,13,00,17.10
2014,05,28,13,01,17.20
2014,05,28,13,02,17.20
2014,05,28,13,03,17.30
2014,05,28,13,04,17.50
2014,05,28,13,05,17.50
2014,05,28,13,06,17.60
2014,05,28,13,07,17.60
2014,05,28,13,08,17.70
2014,05,28,13,09,17.80
2014,05,28,13,10,17.80
2014,05,28,13,11,17.90
2014,05,28,13,12,17.90
2014,05,28,13,13,18.00
2014,05,28,13,14,17.90
2014,05,28,13,15,17.80
2014,05,28,13,16,17.70
2014,05,28,13,17,17.60
2014,05,28,13,18,17.50
2014,05,28,13,19,17.50
2014,05,28,13,20,17.50
2014,05,28,13,21,17.50
2014,05,28,13,22,17.50
2014,05,28,13,23,17.60
2014,05,28,13,24,17.60
2014,05,28,13,25,17.60
2014,05,28,13,26,17.60
2014,05,28,13,27,17.60
2014,05,28,13,28,17.60
2014,05,28,13,29,17.60
2014,05,28,13,30,17.70
2014,05,28,13,31,17.80
2014,05,28,13,32,17.90
2014,05,28,13,33,18.10
2014,05,28,13,34,18.20
2014,05,28,13,35,18.40
2014,05,28,13,36,18.40
2014,05,28,13,37,18.30
2014,05,28,13,38,18.30
2014,05,28,13,39,18.20
2014,05,28,13,40,18.10
2014,05,28,13,41,17.90
2014,05,28,13,42,17.90
2014,05,28,13,43,18.00
2014,05,28,13,44,18.20
2014,05,28,13,45,18.30
2014,05,28,13,46,18.40
2014,05,28,13,47,18.40
2014,05,28,13,48,18.30
2014,05,28,13,49,18.30
2014,05,28,13,50,18.30
2014,05,28,13,51,18.20
2014,05,28,13,52,18.20
2014,05,28,13,53,18.20
2014,05,28,13,54,18.10
2014,05,28,13,55,18.10
2014,05,28,13,56,18.00
2014,05,28,13,57,18.00
2014,05,28,13,58,18.00
2014,05,28,13,59,17.90
2014,05,28,14,00,17.90
2014,05,28,14,01,17.90
2014,05,28,14,02,18.00
2014,05,28,14,03,18.00
2014,05,28,14,04,18.10
2014,05,28,14,05,18.10
2014,05,28,14,06,18.10
2014,05,28,14,07,18.20
2014,05,28,14,08,18.30
2014,05,28,14,09,18.30
2014,05,28,14,10,18.30
2014,05,28,14,11,18.20
2014,05,28,14,12,18.20
2014,05,28,14,13,18.20
2014,05,28,14,14,18.20
2014,05,28,14,15,18.20
2014,05,28,14,16,18.20
2014,05,28,14,17,18.20
2014,05,28,14,18,18.20
2014,05,28,14,19,18.20
2014,05,28,14,20,18.20
2014,05,28,14,21,18.20
2014,05,28,14,22,18.10
2014,05,28,14,23,18.10
2014,05,28,14,24,18.10
2014,05,28,14,25,18.10
2014,05,28,14,26,18.00
2014,05,28,14,27,18.00
2014,05,28,14,28,18.00
2014,05,28,14,29,18.00
2014,05,28,14,30,18.00
2014,05,28,14,31,18.10
2014,05,28,14,32,18.10
2014,05,28,14,33,18.20
2014,05,28,14,34,18.30
2014,05,28,14,35,18.50
2014,05,28,14,36,18.50
2014,05,28,14,37,18.50
2014,05,28,14,38,18.30
2014,05,28,14,39,18.20
2014,05,28,14,40,18.10
2014,05,28,14,41,18.10
2014,05,28,14,42,18.10
2014,05,28,14,43,18.00
2014,05,28,14,44,17.90
2014,05,28,14,45,17.90
2014,05,28,14,46,18.00
2014,05,28,14,47,18.00
2014,05,28,14,48,18.10
2014,05,28,14,49,18.10
2014,05,28,14,50,18.20
2014,05,28,14,51,18.20
2014,05,28,14,52,18.20
2014,05,28,14,53,18.20
2014,05,28,14,54,18.30
2014,05,28,14,55,18.40
2014,05,28,14,56,18.60
2014,05,28,14,57,18.60
2014,05,28,14,58,18.70
2014,05,28,14,59,18.60
2014,05,28,15,00,18.50
2014,05,28,15,01,18.60
2014,05,28,15,02,18.50
2014,05,28,15,03,18.40
2014,05,28,15,04,18.20
2014,05,28,15,05,18.20
2014,05,28,15,06,18.30
2014,05,28,15,07,18.40
2014,05,28,15,08,18.60
2014,05,28,15,09,18.60
2014,05,28,15,10,18.40
2014,05,28,15,11,18.30
2014,05,28,15,12,18.30
2014,05,28,15,13,18.30
2014,05,28,15,14,18.20
2014,05,28,15,15,18.20
2014,05,28,15,16,18.20
2014,05,28,15,17,18.30
2014,05,28,15,18,18.30
2014,05,28,15,19,18.30
2014,05,28,15,20,18.30
2014,05,28,15,21,18.20
2014,05,28,15,22,18.20
2014,05,28,15,23,18.20
2014,05,28,15,24,18.20
2014,05,28,15,25,18.20
2014,05,28,15,26,18.20
2014,05,28,15,27,18.20
2014,05,28,15,28,18.30
2014,05,28,15,29,18.40
2014,05,28,15,30,18.40
2014,05,28,15,31,18.30
2014,05,28,15,32,18.20
2014,05,28,15,33,18.10
2014,05,28,15,34,18.10
2014,05,28,15,35,18.10
2014,05,28,15,36,18.10
2014,05,28,15,37,18.10
2014,05,28,15,38,18.10
2014,05,28,15,39,18.10
2014,05,28,15,40,18.00
2014,05,28,15,41,17.80
2014,05,28,15,42,17.70
2014,05,28,15,43,17.80
2014,05,28,15,44,17.90
2014,05,28,15,45,17.90
2014,05,28,15,46,17.90
2014,05,28,15,47,17.90
2014,05,28,15,48,17.90
2014,05,28,15,49,17.80
2014,05,28,15,50,17.80
2014,05,28,15,51,17.80
2014,05,28,15,52,17.80
2014,05,28,15,53,17.80
2014,05,28,15,54,17.80
2014,05,28,15,55,17.70
2014,05,28,15,56,17.50
2014,05,28,15,57,17.40
2014,05,28,15,58,17.50
2014,05,28,15,59,17.50
2014,05,28,16,00,17.70
2014,05,28,16,01,17.80
2014,05,28,16,02,17.70
2014,05,28,16,03,17.70
2014,05,28,16,04,17.60
2014,05,28,16,05,17.60
2014,05,28,16,06,17.60
2014,05,28,16,07,17.60
2014,05,28,16,08,17.60
2014,05,28,16,09,17.60
2014,05,28,16,10,17.60
2014,05,28,16,11,17.60
2014,05,28,16,12,17.60
2014,05,28,16,13,17.60
2014,05,28,16,14,17.60
2014,05,28,16,15,17.60
2014,05,28,16,16,17.60
2014,05,28,16,17,17.60
2014,05,28,16,18,17.70
2014,05,28,16,19,17.70
2014,05,28,16,20,17.70
2014,05,28,16,21,17.60
2014,05,28,16,22,17.50
2014,05,28,16,23,17.50
2014,05,28,16,24,17.50
2014,05,28,16,25,17.60
2014,05,28,16,26,17.60
2014,05,28,16,27,17.70
2014,05,28,16,28,17.70
2014,05,28,16,29,17.80
2014,05,28,16,30,17.80
2014,05,28,16,31,17.80
2014,05,28,16,32,17.80
2014,05,28,16,33,17.70
2014,05,28,16,34,17.80
2014,05,28,16,35,17.80
2014,05,28,16,36,17.80
2014,05,28,16,37,17.80
2014,05,28,16,38,17.80
2014,05,28,16,39,17.70
2014,05,28,16,40,17.60
2014,05,28,16,41,17.50
2014,05,28,16,42,17.50
2014,05,28,16,43,17.50
2014,05,28,16,44,17.50
2014,05,28,16,45,17.60
2014,05,28,16,46,17.50
2014,05,28,16,47,17.40
2014,05,28,16,48,17.40
2014,05,28,16,49,17.50
2014,05,28,16,50,17.50
2014,05,28,16,51,17.40
2014,05,28,16,52,17.40
2014,05,28,16,53,17.30
2014,05,28,16,54,17.30
2014,05,28,16,55,17.40
2014,05,28,16,56,17.30
2014,05,28,16,57,17.30
2014,05,28,16,58,17.30
2014,05,28,16,59,17.30
2014,05,28,17,00,17.20
2014,05,28,17,01,17.20
2014,05,28,17,02,17.20
2014,05,28,17,03,17.20
2014,05,28,17,04,17.20
2014,05,28,17,05,17.10
2014,05,28,17,06,17.10
2014,05,28,17,07,17.10
2014,05,28,17,08,17.10
2014,05,28,17,09,17.10
2014,05,28,17,10,17.10
2014,05,28,17,11,17.10
2014,05,28,17,12,17.20
2014,05,28,17,13,17.20
2014,05,28,17,14,17.20
2014,05,28,17,15,17.30
2014,05,28,17,16,17.30
2014,05,28,17,17,17.20
2014,05,28,17,18,17.20
2014,05,28,17,19,17.20
2014,05,28,17,20,17.20
2014,05,28,17,21,17.10
2014,05,28,17,22,17.00
2014,05,28,17,23,17.00
2014,05,28,17,24,17.10
2014,05,28,17,25,17.20
2014,05,28,17,26,17.20
2014,05,28,17,27,17.30